<?xml version="1.0" encoding="UTF-8"?>
<gpx
version="1.1"
creator="Kashmir3D 9.350 - http://www.kashmir3d.com"
xmlns:xsi="http://www.w3.org/2001/XMLSchema-instance"
xmlns="http://www.topografix.com/GPX/1/1"
xmlns:kashmir3d="http://www.kashmir3d.com/namespace/kashmir3d"
xsi:schemaLocation="http://www.topografix.com/GPX/1/1 http://www.topografix.com/GPX/1/1/gpx.xsd
	http://www.kashmir3d.com/namespace/kashmir3d http://www.kashmir3d.com/namespace/kashmir3d.xsd">
<trk>
 <name>GOZAISHODAKE.KML(御在所岳)</name>
 <number>1</number>
 <extensions>
 <kashmir3d:line_color>0000ff</kashmir3d:line_color>
 <kashmir3d:line_size>3</kashmir3d:line_size>
 <kashmir3d:line_style>1</kashmir3d:line_style>
 <kashmir3d:icon>901001</kashmir3d:icon>
 </extensions>
<trkseg>
<trkpt lat="35.014279" lon="136.436547">
 <ele>557</ele>
 <time>2020-03-24T14:19:27Z</time>
</trkpt>
<trkpt lat="35.014339" lon="136.436493">
 <ele>557</ele>
 <time>2020-03-24T14:19:28Z</time>
</trkpt>
<trkpt lat="35.014296" lon="136.436246">
 <ele>558</ele>
 <time>2020-03-24T14:19:28Z</time>
</trkpt>
<trkpt lat="35.014279" lon="136.436043">
 <ele>559</ele>
 <time>2020-03-24T14:19:28Z</time>
</trkpt>
<trkpt lat="35.014330" lon="136.435914">
 <ele>558</ele>
 <time>2020-03-24T14:19:28Z</time>
</trkpt>
<trkpt lat="35.014416" lon="136.435742">
 <ele>558</ele>
 <time>2020-03-24T14:19:28Z</time>
</trkpt>
<trkpt lat="35.014510" lon="136.435581">
 <ele>557</ele>
 <time>2020-03-24T14:19:28Z</time>
</trkpt>
<trkpt lat="35.014579" lon="136.435463">
 <ele>558</ele>
 <time>2020-03-24T14:19:29Z</time>
</trkpt>
<trkpt lat="35.014630" lon="136.435313">
 <ele>558</ele>
 <time>2020-03-24T14:19:29Z</time>
</trkpt>
<trkpt lat="35.014639" lon="136.435206">
 <ele>559</ele>
 <time>2020-03-24T14:19:29Z</time>
</trkpt>
<trkpt lat="35.014716" lon="136.435152">
 <ele>560</ele>
 <time>2020-03-24T14:19:29Z</time>
</trkpt>
<trkpt lat="35.014768" lon="136.435109">
 <ele>561</ele>
 <time>2020-03-24T14:19:29Z</time>
</trkpt>
<trkpt lat="35.014836" lon="136.435174">
 <ele>564</ele>
 <time>2020-03-24T14:19:29Z</time>
</trkpt>
<trkpt lat="35.014888" lon="136.435270">
 <ele>574</ele>
 <time>2020-03-24T14:19:29Z</time>
</trkpt>
<trkpt lat="35.014939" lon="136.435345">
 <ele>574</ele>
 <time>2020-03-24T14:19:30Z</time>
</trkpt>
<trkpt lat="35.015060" lon="136.435292">
 <ele>585</ele>
 <time>2020-03-24T14:19:30Z</time>
</trkpt>
<trkpt lat="35.015145" lon="136.435259">
 <ele>587</ele>
 <time>2020-03-24T14:19:30Z</time>
</trkpt>
<trkpt lat="35.015223" lon="136.435345">
 <ele>595</ele>
 <time>2020-03-24T14:19:30Z</time>
</trkpt>
<trkpt lat="35.015266" lon="136.435399">
 <ele>601</ele>
 <time>2020-03-24T14:19:30Z</time>
</trkpt>
<trkpt lat="35.015283" lon="136.435474">
 <ele>601</ele>
 <time>2020-03-24T14:19:30Z</time>
</trkpt>
<trkpt lat="35.015257" lon="136.435528">
 <ele>602</ele>
 <time>2020-03-24T14:19:31Z</time>
</trkpt>
<trkpt lat="35.015240" lon="136.435592">
 <ele>602</ele>
 <time>2020-03-24T14:19:31Z</time>
</trkpt>
<trkpt lat="35.015240" lon="136.435635">
 <ele>604</ele>
 <time>2020-03-24T14:19:31Z</time>
</trkpt>
<trkpt lat="35.015326" lon="136.435678">
 <ele>606</ele>
 <time>2020-03-24T14:19:31Z</time>
</trkpt>
<trkpt lat="35.015377" lon="136.435721">
 <ele>610</ele>
 <time>2020-03-24T14:19:31Z</time>
</trkpt>
<trkpt lat="35.015420" lon="136.435785">
 <ele>612</ele>
 <time>2020-03-24T14:19:31Z</time>
</trkpt>
<trkpt lat="35.015480" lon="136.435828">
 <ele>614</ele>
 <time>2020-03-24T14:19:31Z</time>
</trkpt>
<trkpt lat="35.015557" lon="136.435828">
 <ele>618</ele>
 <time>2020-03-24T14:19:32Z</time>
</trkpt>
<trkpt lat="35.015652" lon="136.435828">
 <ele>621</ele>
 <time>2020-03-24T14:19:32Z</time>
</trkpt>
<trkpt lat="35.015738" lon="136.435850">
 <ele>629</ele>
 <time>2020-03-24T14:19:32Z</time>
</trkpt>
<trkpt lat="35.015798" lon="136.435850">
 <ele>629</ele>
 <time>2020-03-24T14:19:32Z</time>
</trkpt>
<trkpt lat="35.015875" lon="136.435807">
 <ele>639</ele>
 <time>2020-03-24T14:19:32Z</time>
</trkpt>
<trkpt lat="35.015978" lon="136.435796">
 <ele>645</ele>
 <time>2020-03-24T14:19:32Z</time>
</trkpt>
<trkpt lat="35.016047" lon="136.435839">
 <ele>652</ele>
 <time>2020-03-24T14:19:33Z</time>
</trkpt>
<trkpt lat="35.016072" lon="136.435753">
 <ele>656</ele>
 <time>2020-03-24T14:19:33Z</time>
</trkpt>
<trkpt lat="35.016098" lon="136.435635">
 <ele>664</ele>
 <time>2020-03-24T14:19:33Z</time>
</trkpt>
<trkpt lat="35.016132" lon="136.435560">
 <ele>667</ele>
 <time>2020-03-24T14:19:33Z</time>
</trkpt>
<trkpt lat="35.016124" lon="136.435463">
 <ele>668</ele>
 <time>2020-03-24T14:19:33Z</time>
</trkpt>
<trkpt lat="35.016175" lon="136.435420">
 <ele>667</ele>
 <time>2020-03-24T14:19:33Z</time>
</trkpt>
<trkpt lat="35.016287" lon="136.435442">
 <ele>673</ele>
 <time>2020-03-24T14:19:33Z</time>
</trkpt>
<trkpt lat="35.016441" lon="136.435431">
 <ele>675</ele>
 <time>2020-03-24T14:19:34Z</time>
</trkpt>
<trkpt lat="35.016527" lon="136.435388">
 <ele>678</ele>
 <time>2020-03-24T14:19:34Z</time>
</trkpt>
<trkpt lat="35.016639" lon="136.435324">
 <ele>679</ele>
 <time>2020-03-24T14:19:34Z</time>
</trkpt>
<trkpt lat="35.016742" lon="136.435227">
 <ele>686</ele>
 <time>2020-03-24T14:19:34Z</time>
</trkpt>
<trkpt lat="35.016811" lon="136.435163">
 <ele>690</ele>
 <time>2020-03-24T14:19:34Z</time>
</trkpt>
<trkpt lat="35.016871" lon="136.435077">
 <ele>689</ele>
 <time>2020-03-24T14:19:34Z</time>
</trkpt>
<trkpt lat="35.016965" lon="136.435034">
 <ele>691</ele>
 <time>2020-03-24T14:19:35Z</time>
</trkpt>
<trkpt lat="35.017008" lon="136.435066">
 <ele>693</ele>
 <time>2020-03-24T14:19:35Z</time>
</trkpt>
<trkpt lat="35.017077" lon="136.435056">
 <ele>696</ele>
 <time>2020-03-24T14:19:35Z</time>
</trkpt>
<trkpt lat="35.017145" lon="136.435077">
 <ele>698</ele>
 <time>2020-03-24T14:19:35Z</time>
</trkpt>
<trkpt lat="35.017197" lon="136.435141">
 <ele>702</ele>
 <time>2020-03-24T14:19:35Z</time>
</trkpt>
<trkpt lat="35.017265" lon="136.435184">
 <ele>707</ele>
 <time>2020-03-24T14:19:35Z</time>
</trkpt>
<trkpt lat="35.017351" lon="136.435206">
 <ele>713</ele>
 <time>2020-03-24T14:19:35Z</time>
</trkpt>
<trkpt lat="35.017429" lon="136.435206">
 <ele>716</ele>
 <time>2020-03-24T14:19:36Z</time>
</trkpt>
<trkpt lat="35.017514" lon="136.435206">
 <ele>720</ele>
 <time>2020-03-24T14:19:36Z</time>
</trkpt>
<trkpt lat="35.017617" lon="136.435184">
 <ele>725</ele>
 <time>2020-03-24T14:19:36Z</time>
</trkpt>
<trkpt lat="35.017677" lon="136.435238">
 <ele>729</ele>
 <time>2020-03-24T14:19:36Z</time>
</trkpt>
<trkpt lat="35.017755" lon="136.435227">
 <ele>733</ele>
 <time>2020-03-24T14:19:36Z</time>
</trkpt>
<trkpt lat="35.017815" lon="136.435184">
 <ele>736</ele>
 <time>2020-03-24T14:19:36Z</time>
</trkpt>
<trkpt lat="35.017875" lon="136.435184">
 <ele>739</ele>
 <time>2020-03-24T14:19:37Z</time>
</trkpt>
<trkpt lat="35.017961" lon="136.435206">
 <ele>743</ele>
 <time>2020-03-24T14:19:37Z</time>
</trkpt>
<trkpt lat="35.018055" lon="136.435206">
 <ele>750</ele>
 <time>2020-03-24T14:19:37Z</time>
</trkpt>
<trkpt lat="35.018141" lon="136.435206">
 <ele>752</ele>
 <time>2020-03-24T14:19:37Z</time>
</trkpt>
<trkpt lat="35.018244" lon="136.435184">
 <ele>754</ele>
 <time>2020-03-24T14:19:37Z</time>
</trkpt>
<trkpt lat="35.018355" lon="136.435141">
 <ele>763</ele>
 <time>2020-03-24T14:19:37Z</time>
</trkpt>
<trkpt lat="35.018424" lon="136.435120">
 <ele>768</ele>
 <time>2020-03-24T14:19:38Z</time>
</trkpt>
<trkpt lat="35.018501" lon="136.435120">
 <ele>774</ele>
 <time>2020-03-24T14:19:38Z</time>
</trkpt>
<trkpt lat="35.018553" lon="136.435066">
 <ele>781</ele>
 <time>2020-03-24T14:19:38Z</time>
</trkpt>
<trkpt lat="35.018613" lon="136.435013">
 <ele>784</ele>
 <time>2020-03-24T14:19:38Z</time>
</trkpt>
<trkpt lat="35.018673" lon="136.434991">
 <ele>790</ele>
 <time>2020-03-24T14:19:38Z</time>
</trkpt>
<trkpt lat="35.018767" lon="136.435002">
 <ele>797</ele>
 <time>2020-03-24T14:19:38Z</time>
</trkpt>
<trkpt lat="35.018776" lon="136.435109">
 <ele>790</ele>
 <time>2020-03-24T14:19:38Z</time>
</trkpt>
<trkpt lat="35.018776" lon="136.435163">
 <ele>790</ele>
 <time>2020-03-24T14:19:39Z</time>
</trkpt>
<trkpt lat="35.018793" lon="136.435238">
 <ele>789</ele>
 <time>2020-03-24T14:19:39Z</time>
</trkpt>
<trkpt lat="35.018785" lon="136.435335">
 <ele>789</ele>
 <time>2020-03-24T14:19:39Z</time>
</trkpt>
<trkpt lat="35.018793" lon="136.435410">
 <ele>788</ele>
 <time>2020-03-24T14:19:39Z</time>
</trkpt>
<trkpt lat="35.018845" lon="136.435453">
 <ele>793</ele>
 <time>2020-03-24T14:19:39Z</time>
</trkpt>
<trkpt lat="35.018905" lon="136.435410">
 <ele>797</ele>
 <time>2020-03-24T14:19:39Z</time>
</trkpt>
<trkpt lat="35.018982" lon="136.435335">
 <ele>802</ele>
 <time>2020-03-24T14:19:40Z</time>
</trkpt>
<trkpt lat="35.019034" lon="136.435270">
 <ele>804</ele>
 <time>2020-03-24T14:19:40Z</time>
</trkpt>
<trkpt lat="35.019059" lon="136.435184">
 <ele>808</ele>
 <time>2020-03-24T14:19:40Z</time>
</trkpt>
<trkpt lat="35.019051" lon="136.435099">
 <ele>811</ele>
 <time>2020-03-24T14:19:40Z</time>
</trkpt>
<trkpt lat="35.019076" lon="136.435013">
 <ele>812</ele>
 <time>2020-03-24T14:19:40Z</time>
</trkpt>
<trkpt lat="35.019128" lon="136.434948">
 <ele>816</ele>
 <time>2020-03-24T14:19:40Z</time>
</trkpt>
<trkpt lat="35.019171" lon="136.434905">
 <ele>819</ele>
 <time>2020-03-24T14:19:40Z</time>
</trkpt>
<trkpt lat="35.019154" lon="136.434787">
 <ele>824</ele>
 <time>2020-03-24T14:19:41Z</time>
</trkpt>
<trkpt lat="35.019085" lon="136.434712">
 <ele>826</ele>
 <time>2020-03-24T14:19:41Z</time>
</trkpt>
<trkpt lat="35.019042" lon="136.434616">
 <ele>830</ele>
 <time>2020-03-24T14:19:41Z</time>
</trkpt>
<trkpt lat="35.019034" lon="136.434541">
 <ele>832</ele>
 <time>2020-03-24T14:19:41Z</time>
</trkpt>
<trkpt lat="35.019016" lon="136.434476">
 <ele>826</ele>
 <time>2020-03-24T14:19:41Z</time>
</trkpt>
<trkpt lat="35.019085" lon="136.434444">
 <ele>829</ele>
 <time>2020-03-24T14:19:41Z</time>
</trkpt>
<trkpt lat="35.019171" lon="136.434455">
 <ele>833</ele>
 <time>2020-03-24T14:19:42Z</time>
</trkpt>
<trkpt lat="35.019222" lon="136.434433">
 <ele>837</ele>
 <time>2020-03-24T14:19:42Z</time>
</trkpt>
<trkpt lat="35.019282" lon="136.434369">
 <ele>843</ele>
 <time>2020-03-24T14:19:42Z</time>
</trkpt>
<trkpt lat="35.019325" lon="136.434337">
 <ele>846</ele>
 <time>2020-03-24T14:19:42Z</time>
</trkpt>
<trkpt lat="35.019325" lon="136.434251">
 <ele>849</ele>
 <time>2020-03-24T14:19:42Z</time>
</trkpt>
<trkpt lat="35.019325" lon="136.434165">
 <ele>848</ele>
 <time>2020-03-24T14:19:42Z</time>
</trkpt>
<trkpt lat="35.019385" lon="136.434122">
 <ele>849</ele>
 <time>2020-03-24T14:19:43Z</time>
</trkpt>
<trkpt lat="35.019437" lon="136.434101">
 <ele>849</ele>
 <time>2020-03-24T14:19:43Z</time>
</trkpt>
<trkpt lat="35.019437" lon="136.434047">
 <ele>846</ele>
 <time>2020-03-24T14:19:43Z</time>
</trkpt>
<trkpt lat="35.019600" lon="136.434047">
 <ele>860</ele>
 <time>2020-03-24T14:19:43Z</time>
</trkpt>
<trkpt lat="35.019686" lon="136.433993">
 <ele>866</ele>
 <time>2020-03-24T14:19:43Z</time>
</trkpt>
<trkpt lat="35.019703" lon="136.433940">
 <ele>867</ele>
 <time>2020-03-24T14:19:43Z</time>
</trkpt>
<trkpt lat="35.019772" lon="136.433929">
 <ele>875</ele>
 <time>2020-03-24T14:19:43Z</time>
</trkpt>
<trkpt lat="35.019815" lon="136.433972">
 <ele>882</ele>
 <time>2020-03-24T14:19:44Z</time>
</trkpt>
<trkpt lat="35.019849" lon="136.433972">
 <ele>882</ele>
 <time>2020-03-24T14:19:44Z</time>
</trkpt>
<trkpt lat="35.019892" lon="136.433993">
 <ele>884</ele>
 <time>2020-03-24T14:19:44Z</time>
</trkpt>
<trkpt lat="35.019943" lon="136.433972">
 <ele>887</ele>
 <time>2020-03-24T14:19:44Z</time>
</trkpt>
<trkpt lat="35.019986" lon="136.433929">
 <ele>889</ele>
 <time>2020-03-24T14:19:44Z</time>
</trkpt>
<trkpt lat="35.019961" lon="136.433875">
 <ele>890</ele>
 <time>2020-03-24T14:19:44Z</time>
</trkpt>
<trkpt lat="35.019961" lon="136.433822">
 <ele>890</ele>
 <time>2020-03-24T14:19:45Z</time>
</trkpt>
<trkpt lat="35.020003" lon="136.433800">
 <ele>889</ele>
 <time>2020-03-24T14:19:45Z</time>
</trkpt>
<trkpt lat="35.020072" lon="136.433800">
 <ele>891</ele>
 <time>2020-03-24T14:19:45Z</time>
</trkpt>
<trkpt lat="35.020115" lon="136.433747">
 <ele>891</ele>
 <time>2020-03-24T14:19:45Z</time>
</trkpt>
<trkpt lat="35.020132" lon="136.433704">
 <ele>891</ele>
 <time>2020-03-24T14:19:45Z</time>
</trkpt>
<trkpt lat="35.020175" lon="136.433693">
 <ele>892</ele>
 <time>2020-03-24T14:19:45Z</time>
</trkpt>
<trkpt lat="35.020184" lon="136.433618">
 <ele>892</ele>
 <time>2020-03-24T14:19:46Z</time>
</trkpt>
<trkpt lat="35.020227" lon="136.433521">
 <ele>894</ele>
 <time>2020-03-24T14:19:46Z</time>
</trkpt>
<trkpt lat="35.020235" lon="136.433382">
 <ele>894</ele>
 <time>2020-03-24T14:19:46Z</time>
</trkpt>
<trkpt lat="35.020235" lon="136.433318">
 <ele>894</ele>
 <time>2020-03-24T14:19:46Z</time>
</trkpt>
<trkpt lat="35.020261" lon="136.433264">
 <ele>895</ele>
 <time>2020-03-24T14:19:46Z</time>
</trkpt>
<trkpt lat="35.020261" lon="136.433200">
 <ele>895</ele>
 <time>2020-03-24T14:19:46Z</time>
</trkpt>
<trkpt lat="35.020235" lon="136.433146">
 <ele>895</ele>
 <time>2020-03-24T14:19:46Z</time>
</trkpt>
<trkpt lat="35.020201" lon="136.433017">
 <ele>893</ele>
 <time>2020-03-24T14:19:47Z</time>
</trkpt>
<trkpt lat="35.020227" lon="136.432878">
 <ele>897</ele>
 <time>2020-03-24T14:19:47Z</time>
</trkpt>
<trkpt lat="35.020252" lon="136.432770">
 <ele>898</ele>
 <time>2020-03-24T14:19:47Z</time>
</trkpt>
<trkpt lat="35.020252" lon="136.432674">
 <ele>899</ele>
 <time>2020-03-24T14:19:47Z</time>
</trkpt>
<trkpt lat="35.020321" lon="136.432534">
 <ele>902</ele>
 <time>2020-03-24T14:19:47Z</time>
</trkpt>
<trkpt lat="35.020372" lon="136.432448">
 <ele>905</ele>
 <time>2020-03-24T14:19:47Z</time>
</trkpt>
<trkpt lat="35.020424" lon="136.432330">
 <ele>908</ele>
 <time>2020-03-24T14:19:48Z</time>
</trkpt>
<trkpt lat="35.020467" lon="136.432234">
 <ele>911</ele>
 <time>2020-03-24T14:19:48Z</time>
</trkpt>
<trkpt lat="35.020493" lon="136.432116">
 <ele>912</ele>
 <time>2020-03-24T14:19:48Z</time>
</trkpt>
<trkpt lat="35.020467" lon="136.432019">
 <ele>913</ele>
 <time>2020-03-24T14:19:48Z</time>
</trkpt>
<trkpt lat="35.020450" lon="136.431955">
 <ele>912</ele>
 <time>2020-03-24T14:19:48Z</time>
</trkpt>
<trkpt lat="35.020484" lon="136.431869">
 <ele>909</ele>
 <time>2020-03-24T14:19:48Z</time>
</trkpt>
<trkpt lat="35.020510" lon="136.431794">
 <ele>905</ele>
 <time>2020-03-24T14:19:48Z</time>
</trkpt>
<trkpt lat="35.020441" lon="136.431708">
 <ele>902</ele>
 <time>2020-03-24T14:19:49Z</time>
</trkpt>
<trkpt lat="35.020433" lon="136.431622">
 <ele>898</ele>
 <time>2020-03-24T14:19:49Z</time>
</trkpt>
<trkpt lat="35.020484" lon="136.431537">
 <ele>904</ele>
 <time>2020-03-24T14:19:49Z</time>
</trkpt>
<trkpt lat="35.020493" lon="136.431451">
 <ele>908</ele>
 <time>2020-03-24T14:19:49Z</time>
</trkpt>
<trkpt lat="35.020493" lon="136.431376">
 <ele>912</ele>
 <time>2020-03-24T14:19:49Z</time>
</trkpt>
<trkpt lat="35.020467" lon="136.431322">
 <ele>912</ele>
 <time>2020-03-24T14:19:49Z</time>
</trkpt>
<trkpt lat="35.020510" lon="136.431258">
 <ele>921</ele>
 <time>2020-03-24T14:19:50Z</time>
</trkpt>
<trkpt lat="35.020518" lon="136.431161">
 <ele>926</ele>
 <time>2020-03-24T14:19:50Z</time>
</trkpt>
<trkpt lat="35.020493" lon="136.431129">
 <ele>927</ele>
 <time>2020-03-24T14:19:50Z</time>
</trkpt>
<trkpt lat="35.020475" lon="136.431064">
 <ele>927</ele>
 <time>2020-03-24T14:19:50Z</time>
</trkpt>
<trkpt lat="35.020475" lon="136.431000">
 <ele>932</ele>
 <time>2020-03-24T14:19:50Z</time>
</trkpt>
<trkpt lat="35.020578" lon="136.431000">
 <ele>940</ele>
 <time>2020-03-24T14:19:50Z</time>
</trkpt>
<trkpt lat="35.020664" lon="136.430989">
 <ele>944</ele>
 <time>2020-03-24T14:19:50Z</time>
</trkpt>
<trkpt lat="35.020733" lon="136.430989">
 <ele>947</ele>
 <time>2020-03-24T14:19:51Z</time>
</trkpt>
<trkpt lat="35.020742" lon="136.430925">
 <ele>953</ele>
 <time>2020-03-24T14:19:51Z</time>
</trkpt>
<trkpt lat="35.020784" lon="136.430871">
 <ele>959</ele>
 <time>2020-03-24T14:19:51Z</time>
</trkpt>
<trkpt lat="35.020819" lon="136.430786">
 <ele>960</ele>
 <time>2020-03-24T14:19:51Z</time>
</trkpt>
<trkpt lat="35.020836" lon="136.430710">
 <ele>963</ele>
 <time>2020-03-24T14:19:51Z</time>
</trkpt>
<trkpt lat="35.020793" lon="136.430646">
 <ele>963</ele>
 <time>2020-03-24T14:19:51Z</time>
</trkpt>
<trkpt lat="35.020707" lon="136.430560">
 <ele>971</ele>
 <time>2020-03-24T14:19:52Z</time>
</trkpt>
<trkpt lat="35.020656" lon="136.430528">
 <ele>974</ele>
 <time>2020-03-24T14:19:52Z</time>
</trkpt>
<trkpt lat="35.020639" lon="136.430474">
 <ele>973</ele>
 <time>2020-03-24T14:19:52Z</time>
</trkpt>
<trkpt lat="35.020639" lon="136.430410">
 <ele>975</ele>
 <time>2020-03-24T14:19:52Z</time>
</trkpt>
<trkpt lat="35.020690" lon="136.430292">
 <ele>981</ele>
 <time>2020-03-24T14:19:52Z</time>
</trkpt>
<trkpt lat="35.020707" lon="136.430228">
 <ele>985</ele>
 <time>2020-03-24T14:19:52Z</time>
</trkpt>
<trkpt lat="35.020802" lon="136.430174">
 <ele>993</ele>
 <time>2020-03-24T14:19:52Z</time>
</trkpt>
<trkpt lat="35.020862" lon="136.430131">
 <ele>990</ele>
 <time>2020-03-24T14:19:53Z</time>
</trkpt>
<trkpt lat="35.020913" lon="136.430077">
 <ele>993</ele>
 <time>2020-03-24T14:19:53Z</time>
</trkpt>
<trkpt lat="35.020870" lon="136.429981">
 <ele>994</ele>
 <time>2020-03-24T14:19:53Z</time>
</trkpt>
<trkpt lat="35.020862" lon="136.429970">
 <ele>994</ele>
 <time>2020-03-24T14:19:53Z</time>
</trkpt>
<trkpt lat="35.020802" lon="136.429895">
 <ele>1001</ele>
 <time>2020-03-24T14:19:53Z</time>
</trkpt>
<trkpt lat="35.020759" lon="136.429756">
 <ele>1008</ele>
 <time>2020-03-24T14:19:53Z</time>
</trkpt>
<trkpt lat="35.020724" lon="136.429659">
 <ele>1011</ele>
 <time>2020-03-24T14:19:54Z</time>
</trkpt>
<trkpt lat="35.020656" lon="136.429584">
 <ele>1016</ele>
 <time>2020-03-24T14:19:54Z</time>
</trkpt>
<trkpt lat="35.020578" lon="136.429498">
 <ele>1023</ele>
 <time>2020-03-24T14:19:54Z</time>
</trkpt>
<trkpt lat="35.020536" lon="136.429455">
 <ele>1025</ele>
 <time>2020-03-24T14:19:54Z</time>
</trkpt>
<trkpt lat="35.020484" lon="136.429401">
 <ele>1030</ele>
 <time>2020-03-24T14:19:54Z</time>
</trkpt>
<trkpt lat="35.020458" lon="136.429337">
 <ele>1033</ele>
 <time>2020-03-24T14:19:54Z</time>
</trkpt>
<trkpt lat="35.020458" lon="136.429283">
 <ele>1033</ele>
 <time>2020-03-24T14:19:55Z</time>
</trkpt>
<trkpt lat="35.020450" lon="136.429230">
 <ele>1036</ele>
 <time>2020-03-24T14:19:55Z</time>
</trkpt>
<trkpt lat="35.020415" lon="136.429187">
 <ele>1036</ele>
 <time>2020-03-24T14:19:55Z</time>
</trkpt>
<trkpt lat="35.020398" lon="136.429069">
 <ele>1045</ele>
 <time>2020-03-24T14:19:55Z</time>
</trkpt>
<trkpt lat="35.020364" lon="136.428972">
 <ele>1051</ele>
 <time>2020-03-24T14:19:55Z</time>
</trkpt>
<trkpt lat="35.020364" lon="136.428887">
 <ele>1055</ele>
 <time>2020-03-24T14:19:55Z</time>
</trkpt>
<trkpt lat="35.020304" lon="136.428833">
 <ele>1055</ele>
 <time>2020-03-24T14:19:55Z</time>
</trkpt>
<trkpt lat="35.020321" lon="136.428736">
 <ele>1062</ele>
 <time>2020-03-24T14:19:56Z</time>
</trkpt>
<trkpt lat="35.020287" lon="136.428597">
 <ele>1063</ele>
 <time>2020-03-24T14:19:56Z</time>
</trkpt>
<trkpt lat="35.020312" lon="136.428479">
 <ele>1075</ele>
 <time>2020-03-24T14:19:56Z</time>
</trkpt>
<trkpt lat="35.020347" lon="136.428361">
 <ele>1081</ele>
 <time>2020-03-24T14:19:56Z</time>
</trkpt>
<trkpt lat="35.020372" lon="136.428264">
 <ele>1090</ele>
 <time>2020-03-24T14:19:56Z</time>
</trkpt>
<trkpt lat="35.020364" lon="136.428189">
 <ele>1092</ele>
 <time>2020-03-24T14:19:56Z</time>
</trkpt>
<trkpt lat="35.020347" lon="136.428093">
 <ele>1095</ele>
 <time>2020-03-24T14:19:57Z</time>
</trkpt>
<trkpt lat="35.020458" lon="136.428060">
 <ele>1098</ele>
 <time>2020-03-24T14:19:57Z</time>
</trkpt>
<trkpt lat="35.020544" lon="136.427985">
 <ele>1101</ele>
 <time>2020-03-24T14:19:57Z</time>
</trkpt>
<trkpt lat="35.020561" lon="136.427910">
 <ele>1106</ele>
 <time>2020-03-24T14:19:57Z</time>
</trkpt>
<trkpt lat="35.020561" lon="136.427824">
 <ele>1111</ele>
 <time>2020-03-24T14:19:57Z</time>
</trkpt>
<trkpt lat="35.020630" lon="136.427803">
 <ele>1108</ele>
 <time>2020-03-24T14:19:57Z</time>
</trkpt>
<trkpt lat="35.020656" lon="136.427739">
 <ele>1105</ele>
 <time>2020-03-24T14:19:58Z</time>
</trkpt>
<trkpt lat="35.020716" lon="136.427749">
 <ele>1105</ele>
 <time>2020-03-24T14:19:58Z</time>
</trkpt>
<trkpt lat="35.020716" lon="136.427642">
 <ele>1108</ele>
 <time>2020-03-24T14:19:58Z</time>
</trkpt>
<trkpt lat="35.020742" lon="136.427513">
 <ele>1109</ele>
 <time>2020-03-24T14:19:58Z</time>
</trkpt>
<trkpt lat="35.020759" lon="136.427427">
 <ele>1113</ele>
 <time>2020-03-24T14:19:58Z</time>
</trkpt>
<trkpt lat="35.020827" lon="136.427331">
 <ele>1116</ele>
 <time>2020-03-24T14:19:58Z</time>
</trkpt>
<trkpt lat="35.020810" lon="136.427256">
 <ele>1121</ele>
 <time>2020-03-24T14:19:58Z</time>
</trkpt>
<trkpt lat="35.020810" lon="136.427191">
 <ele>1126</ele>
 <time>2020-03-24T14:19:59Z</time>
</trkpt>
<trkpt lat="35.020819" lon="136.427106">
 <ele>1130</ele>
 <time>2020-03-24T14:19:59Z</time>
</trkpt>
<trkpt lat="35.020819" lon="136.427030">
 <ele>1130</ele>
 <time>2020-03-24T14:19:59Z</time>
</trkpt>
<trkpt lat="35.020819" lon="136.426955">
 <ele>1134</ele>
 <time>2020-03-24T14:19:59Z</time>
</trkpt>
<trkpt lat="35.020802" lon="136.426880">
 <ele>1136</ele>
 <time>2020-03-24T14:19:59Z</time>
</trkpt>
<trkpt lat="35.020767" lon="136.426859">
 <ele>1142</ele>
 <time>2020-03-24T14:19:59Z</time>
</trkpt>
<trkpt lat="35.020733" lon="136.426880">
 <ele>1142</ele>
 <time>2020-03-24T14:20:00Z</time>
</trkpt>
<trkpt lat="35.020664" lon="136.426880">
 <ele>1148</ele>
 <time>2020-03-24T14:20:00Z</time>
</trkpt>
<trkpt lat="35.020621" lon="136.426923">
 <ele>1153</ele>
 <time>2020-03-24T14:20:00Z</time>
</trkpt>
<trkpt lat="35.020587" lon="136.426923">
 <ele>1153</ele>
 <time>2020-03-24T14:20:00Z</time>
</trkpt>
<trkpt lat="35.020544" lon="136.426902">
 <ele>1158</ele>
 <time>2020-03-24T14:20:00Z</time>
</trkpt>
<trkpt lat="35.020544" lon="136.426816">
 <ele>1161</ele>
 <time>2020-03-24T14:20:00Z</time>
</trkpt>
<trkpt lat="35.020536" lon="136.426730">
 <ele>1164</ele>
 <time>2020-03-24T14:20:01Z</time>
</trkpt>
<trkpt lat="35.020518" lon="136.426644">
 <ele>1166</ele>
 <time>2020-03-24T14:20:01Z</time>
</trkpt>
<trkpt lat="35.020493" lon="136.426558">
 <ele>1175</ele>
 <time>2020-03-24T14:20:01Z</time>
</trkpt>
<trkpt lat="35.020493" lon="136.426462">
 <ele>1178</ele>
 <time>2020-03-24T14:20:01Z</time>
</trkpt>
<trkpt lat="35.020433" lon="136.426462">
 <ele>1183</ele>
 <time>2020-03-24T14:20:01Z</time>
</trkpt>
<trkpt lat="35.020381" lon="136.426430">
 <ele>1183</ele>
 <time>2020-03-24T14:20:01Z</time>
</trkpt>
<trkpt lat="35.020364" lon="136.426387">
 <ele>1184</ele>
 <time>2020-03-24T14:20:02Z</time>
</trkpt>
<trkpt lat="35.020381" lon="136.426430">
 <ele>1183</ele>
 <time>2020-03-24T14:20:02Z</time>
</trkpt>
<trkpt lat="35.020433" lon="136.426462">
 <ele>1183</ele>
 <time>2020-03-24T14:20:02Z</time>
</trkpt>
<trkpt lat="35.020493" lon="136.426462">
 <ele>1178</ele>
 <time>2020-03-24T14:20:02Z</time>
</trkpt>
<trkpt lat="35.020493" lon="136.426558">
 <ele>1175</ele>
 <time>2020-03-24T14:20:02Z</time>
</trkpt>
<trkpt lat="35.020518" lon="136.426644">
 <ele>1166</ele>
 <time>2020-03-24T14:20:02Z</time>
</trkpt>
<trkpt lat="35.020536" lon="136.426730">
 <ele>1164</ele>
 <time>2020-03-24T14:20:03Z</time>
</trkpt>
<trkpt lat="35.020544" lon="136.426816">
 <ele>1161</ele>
 <time>2020-03-24T14:20:03Z</time>
</trkpt>
<trkpt lat="35.020544" lon="136.426902">
 <ele>1158</ele>
 <time>2020-03-24T14:20:03Z</time>
</trkpt>
<trkpt lat="35.020587" lon="136.426923">
 <ele>1153</ele>
 <time>2020-03-24T14:20:03Z</time>
</trkpt>
<trkpt lat="35.020621" lon="136.426923">
 <ele>1153</ele>
 <time>2020-03-24T14:20:03Z</time>
</trkpt>
<trkpt lat="35.020664" lon="136.426880">
 <ele>1148</ele>
 <time>2020-03-24T14:20:03Z</time>
</trkpt>
<trkpt lat="35.020733" lon="136.426880">
 <ele>1142</ele>
 <time>2020-03-24T14:20:03Z</time>
</trkpt>
<trkpt lat="35.020767" lon="136.426859">
 <ele>1142</ele>
 <time>2020-03-24T14:20:04Z</time>
</trkpt>
<trkpt lat="35.020802" lon="136.426880">
 <ele>1136</ele>
 <time>2020-03-24T14:20:04Z</time>
</trkpt>
<trkpt lat="35.020819" lon="136.426955">
 <ele>1134</ele>
 <time>2020-03-24T14:20:04Z</time>
</trkpt>
<trkpt lat="35.020819" lon="136.427030">
 <ele>1130</ele>
 <time>2020-03-24T14:20:04Z</time>
</trkpt>
<trkpt lat="35.020819" lon="136.427106">
 <ele>1130</ele>
 <time>2020-03-24T14:20:04Z</time>
</trkpt>
<trkpt lat="35.020810" lon="136.427191">
 <ele>1126</ele>
 <time>2020-03-24T14:20:04Z</time>
</trkpt>
<trkpt lat="35.020810" lon="136.427256">
 <ele>1121</ele>
 <time>2020-03-24T14:20:05Z</time>
</trkpt>
<trkpt lat="35.020827" lon="136.427331">
 <ele>1116</ele>
 <time>2020-03-24T14:20:05Z</time>
</trkpt>
<trkpt lat="35.020759" lon="136.427427">
 <ele>1113</ele>
 <time>2020-03-24T14:20:05Z</time>
</trkpt>
<trkpt lat="35.020742" lon="136.427513">
 <ele>1109</ele>
 <time>2020-03-24T14:20:05Z</time>
</trkpt>
<trkpt lat="35.020716" lon="136.427642">
 <ele>1108</ele>
 <time>2020-03-24T14:20:05Z</time>
</trkpt>
<trkpt lat="35.020716" lon="136.427749">
 <ele>1105</ele>
 <time>2020-03-24T14:20:05Z</time>
</trkpt>
<trkpt lat="35.020656" lon="136.427739">
 <ele>1105</ele>
 <time>2020-03-24T14:20:06Z</time>
</trkpt>
<trkpt lat="35.020630" lon="136.427803">
 <ele>1108</ele>
 <time>2020-03-24T14:20:06Z</time>
</trkpt>
<trkpt lat="35.020561" lon="136.427824">
 <ele>1111</ele>
 <time>2020-03-24T14:20:06Z</time>
</trkpt>
<trkpt lat="35.020561" lon="136.427910">
 <ele>1106</ele>
 <time>2020-03-24T14:20:06Z</time>
</trkpt>
<trkpt lat="35.020544" lon="136.427985">
 <ele>1101</ele>
 <time>2020-03-24T14:20:06Z</time>
</trkpt>
<trkpt lat="35.020458" lon="136.428060">
 <ele>1098</ele>
 <time>2020-03-24T14:20:06Z</time>
</trkpt>
<trkpt lat="35.020347" lon="136.428093">
 <ele>1095</ele>
 <time>2020-03-24T14:20:06Z</time>
</trkpt>
<trkpt lat="35.020364" lon="136.428189">
 <ele>1092</ele>
 <time>2020-03-24T14:20:07Z</time>
</trkpt>
<trkpt lat="35.020372" lon="136.428264">
 <ele>1090</ele>
 <time>2020-03-24T14:20:07Z</time>
</trkpt>
<trkpt lat="35.020347" lon="136.428361">
 <ele>1081</ele>
 <time>2020-03-24T14:20:07Z</time>
</trkpt>
<trkpt lat="35.020312" lon="136.428479">
 <ele>1075</ele>
 <time>2020-03-24T14:20:07Z</time>
</trkpt>
<trkpt lat="35.020287" lon="136.428597">
 <ele>1063</ele>
 <time>2020-03-24T14:20:07Z</time>
</trkpt>
<trkpt lat="35.020321" lon="136.428736">
 <ele>1062</ele>
 <time>2020-03-24T14:20:07Z</time>
</trkpt>
<trkpt lat="35.020304" lon="136.428833">
 <ele>1055</ele>
 <time>2020-03-24T14:20:08Z</time>
</trkpt>
<trkpt lat="35.020364" lon="136.428887">
 <ele>1055</ele>
 <time>2020-03-24T14:20:08Z</time>
</trkpt>
<trkpt lat="35.020364" lon="136.428972">
 <ele>1051</ele>
 <time>2020-03-24T14:20:08Z</time>
</trkpt>
<trkpt lat="35.020398" lon="136.429069">
 <ele>1045</ele>
 <time>2020-03-24T14:20:08Z</time>
</trkpt>
<trkpt lat="35.020415" lon="136.429187">
 <ele>1036</ele>
 <time>2020-03-24T14:20:08Z</time>
</trkpt>
<trkpt lat="35.020450" lon="136.429230">
 <ele>1036</ele>
 <time>2020-03-24T14:20:08Z</time>
</trkpt>
<trkpt lat="35.020458" lon="136.429283">
 <ele>1033</ele>
 <time>2020-03-24T14:20:09Z</time>
</trkpt>
<trkpt lat="35.020458" lon="136.429337">
 <ele>1033</ele>
 <time>2020-03-24T14:20:09Z</time>
</trkpt>
<trkpt lat="35.020484" lon="136.429401">
 <ele>1030</ele>
 <time>2020-03-24T14:20:09Z</time>
</trkpt>
<trkpt lat="35.020536" lon="136.429455">
 <ele>1025</ele>
 <time>2020-03-24T14:20:09Z</time>
</trkpt>
<trkpt lat="35.020578" lon="136.429498">
 <ele>1023</ele>
 <time>2020-03-24T14:20:09Z</time>
</trkpt>
<trkpt lat="35.020656" lon="136.429584">
 <ele>1016</ele>
 <time>2020-03-24T14:20:09Z</time>
</trkpt>
<trkpt lat="35.020724" lon="136.429659">
 <ele>1011</ele>
 <time>2020-03-24T14:20:10Z</time>
</trkpt>
<trkpt lat="35.020759" lon="136.429756">
 <ele>1008</ele>
 <time>2020-03-24T14:20:10Z</time>
</trkpt>
<trkpt lat="35.020802" lon="136.429895">
 <ele>1001</ele>
 <time>2020-03-24T14:20:10Z</time>
</trkpt>
<trkpt lat="35.020862" lon="136.429970">
 <ele>994</ele>
 <time>2020-03-24T14:20:10Z</time>
</trkpt>
<trkpt lat="35.020870" lon="136.429981">
 <ele>994</ele>
 <time>2020-03-24T14:20:10Z</time>
</trkpt>
<trkpt lat="35.020913" lon="136.430077">
 <ele>993</ele>
 <time>2020-03-24T14:20:10Z</time>
</trkpt>
<trkpt lat="35.020862" lon="136.430131">
 <ele>990</ele>
 <time>2020-03-24T14:20:10Z</time>
</trkpt>
<trkpt lat="35.020802" lon="136.430174">
 <ele>993</ele>
 <time>2020-03-24T14:20:11Z</time>
</trkpt>
<trkpt lat="35.020707" lon="136.430228">
 <ele>985</ele>
 <time>2020-03-24T14:20:11Z</time>
</trkpt>
<trkpt lat="35.020690" lon="136.430292">
 <ele>981</ele>
 <time>2020-03-24T14:20:11Z</time>
</trkpt>
<trkpt lat="35.020639" lon="136.430410">
 <ele>975</ele>
 <time>2020-03-24T14:20:11Z</time>
</trkpt>
<trkpt lat="35.020639" lon="136.430474">
 <ele>973</ele>
 <time>2020-03-24T14:20:11Z</time>
</trkpt>
<trkpt lat="35.020656" lon="136.430528">
 <ele>974</ele>
 <time>2020-03-24T14:20:11Z</time>
</trkpt>
<trkpt lat="35.020707" lon="136.430560">
 <ele>971</ele>
 <time>2020-03-24T14:20:12Z</time>
</trkpt>
<trkpt lat="35.020793" lon="136.430646">
 <ele>963</ele>
 <time>2020-03-24T14:20:12Z</time>
</trkpt>
<trkpt lat="35.020836" lon="136.430710">
 <ele>963</ele>
 <time>2020-03-24T14:20:12Z</time>
</trkpt>
<trkpt lat="35.020819" lon="136.430786">
 <ele>960</ele>
 <time>2020-03-24T14:20:12Z</time>
</trkpt>
<trkpt lat="35.020784" lon="136.430871">
 <ele>959</ele>
 <time>2020-03-24T14:20:12Z</time>
</trkpt>
<trkpt lat="35.020742" lon="136.430925">
 <ele>953</ele>
 <time>2020-03-24T14:20:12Z</time>
</trkpt>
<trkpt lat="35.020733" lon="136.430989">
 <ele>947</ele>
 <time>2020-03-24T14:20:12Z</time>
</trkpt>
<trkpt lat="35.020664" lon="136.430989">
 <ele>944</ele>
 <time>2020-03-24T14:20:13Z</time>
</trkpt>
<trkpt lat="35.020578" lon="136.431000">
 <ele>940</ele>
 <time>2020-03-24T14:20:13Z</time>
</trkpt>
<trkpt lat="35.020475" lon="136.431000">
 <ele>932</ele>
 <time>2020-03-24T14:20:13Z</time>
</trkpt>
<trkpt lat="35.020475" lon="136.431064">
 <ele>927</ele>
 <time>2020-03-24T14:20:13Z</time>
</trkpt>
<trkpt lat="35.020493" lon="136.431129">
 <ele>927</ele>
 <time>2020-03-24T14:20:13Z</time>
</trkpt>
<trkpt lat="35.020518" lon="136.431161">
 <ele>926</ele>
 <time>2020-03-24T14:20:13Z</time>
</trkpt>
<trkpt lat="35.020510" lon="136.431258">
 <ele>921</ele>
 <time>2020-03-24T14:20:14Z</time>
</trkpt>
<trkpt lat="35.020467" lon="136.431322">
 <ele>912</ele>
 <time>2020-03-24T14:20:14Z</time>
</trkpt>
<trkpt lat="35.020493" lon="136.431376">
 <ele>912</ele>
 <time>2020-03-24T14:20:14Z</time>
</trkpt>
<trkpt lat="35.020493" lon="136.431451">
 <ele>908</ele>
 <time>2020-03-24T14:20:14Z</time>
</trkpt>
<trkpt lat="35.020484" lon="136.431537">
 <ele>904</ele>
 <time>2020-03-24T14:20:14Z</time>
</trkpt>
<trkpt lat="35.020433" lon="136.431622">
 <ele>898</ele>
 <time>2020-03-24T14:20:15Z</time>
</trkpt>
<trkpt lat="35.020441" lon="136.431708">
 <ele>902</ele>
 <time>2020-03-24T14:20:15Z</time>
</trkpt>
<trkpt lat="35.020510" lon="136.431794">
 <ele>905</ele>
 <time>2020-03-24T14:20:15Z</time>
</trkpt>
<trkpt lat="35.020484" lon="136.431869">
 <ele>909</ele>
 <time>2020-03-24T14:20:15Z</time>
</trkpt>
<trkpt lat="35.020450" lon="136.431955">
 <ele>912</ele>
 <time>2020-03-24T14:20:15Z</time>
</trkpt>
<trkpt lat="35.020467" lon="136.432019">
 <ele>913</ele>
 <time>2020-03-24T14:20:15Z</time>
</trkpt>
<trkpt lat="35.020493" lon="136.432116">
 <ele>912</ele>
 <time>2020-03-24T14:20:15Z</time>
</trkpt>
<trkpt lat="35.020467" lon="136.432234">
 <ele>911</ele>
 <time>2020-03-24T14:20:16Z</time>
</trkpt>
<trkpt lat="35.020424" lon="136.432330">
 <ele>908</ele>
 <time>2020-03-24T14:20:16Z</time>
</trkpt>
<trkpt lat="35.020372" lon="136.432448">
 <ele>905</ele>
 <time>2020-03-24T14:20:16Z</time>
</trkpt>
<trkpt lat="35.020321" lon="136.432534">
 <ele>902</ele>
 <time>2020-03-24T14:20:16Z</time>
</trkpt>
<trkpt lat="35.020252" lon="136.432674">
 <ele>899</ele>
 <time>2020-03-24T14:20:16Z</time>
</trkpt>
<trkpt lat="35.020252" lon="136.432770">
 <ele>898</ele>
 <time>2020-03-24T14:20:16Z</time>
</trkpt>
<trkpt lat="35.020227" lon="136.432878">
 <ele>897</ele>
 <time>2020-03-24T14:20:17Z</time>
</trkpt>
<trkpt lat="35.020201" lon="136.433017">
 <ele>893</ele>
 <time>2020-03-24T14:20:17Z</time>
</trkpt>
<trkpt lat="35.020235" lon="136.433146">
 <ele>895</ele>
 <time>2020-03-24T14:20:17Z</time>
</trkpt>
<trkpt lat="35.020261" lon="136.433200">
 <ele>895</ele>
 <time>2020-03-24T14:20:17Z</time>
</trkpt>
<trkpt lat="35.020261" lon="136.433264">
 <ele>895</ele>
 <time>2020-03-24T14:20:17Z</time>
</trkpt>
<trkpt lat="35.020235" lon="136.433318">
 <ele>894</ele>
 <time>2020-03-24T14:20:17Z</time>
</trkpt>
<trkpt lat="35.020235" lon="136.433382">
 <ele>894</ele>
 <time>2020-03-24T14:20:17Z</time>
</trkpt>
<trkpt lat="35.020227" lon="136.433521">
 <ele>894</ele>
 <time>2020-03-24T14:20:18Z</time>
</trkpt>
<trkpt lat="35.020184" lon="136.433618">
 <ele>892</ele>
 <time>2020-03-24T14:20:18Z</time>
</trkpt>
<trkpt lat="35.020175" lon="136.433693">
 <ele>892</ele>
 <time>2020-03-24T14:20:18Z</time>
</trkpt>
<trkpt lat="35.020132" lon="136.433704">
 <ele>891</ele>
 <time>2020-03-24T14:20:18Z</time>
</trkpt>
<trkpt lat="35.020115" lon="136.433747">
 <ele>891</ele>
 <time>2020-03-24T14:20:18Z</time>
</trkpt>
<trkpt lat="35.020072" lon="136.433800">
 <ele>891</ele>
 <time>2020-03-24T14:20:18Z</time>
</trkpt>
<trkpt lat="35.020003" lon="136.433800">
 <ele>889</ele>
 <time>2020-03-24T14:20:19Z</time>
</trkpt>
<trkpt lat="35.019961" lon="136.433822">
 <ele>890</ele>
 <time>2020-03-24T14:20:19Z</time>
</trkpt>
<trkpt lat="35.019961" lon="136.433875">
 <ele>890</ele>
 <time>2020-03-24T14:20:19Z</time>
</trkpt>
<trkpt lat="35.019986" lon="136.433929">
 <ele>889</ele>
 <time>2020-03-24T14:20:19Z</time>
</trkpt>
<trkpt lat="35.019943" lon="136.433972">
 <ele>887</ele>
 <time>2020-03-24T14:20:19Z</time>
</trkpt>
<trkpt lat="35.019892" lon="136.433993">
 <ele>884</ele>
 <time>2020-03-24T14:20:19Z</time>
</trkpt>
<trkpt lat="35.019849" lon="136.433972">
 <ele>882</ele>
 <time>2020-03-24T14:20:19Z</time>
</trkpt>
<trkpt lat="35.019815" lon="136.433972">
 <ele>882</ele>
 <time>2020-03-24T14:20:20Z</time>
</trkpt>
<trkpt lat="35.019772" lon="136.433929">
 <ele>875</ele>
 <time>2020-03-24T14:20:20Z</time>
</trkpt>
<trkpt lat="35.019703" lon="136.433940">
 <ele>867</ele>
 <time>2020-03-24T14:20:20Z</time>
</trkpt>
<trkpt lat="35.019686" lon="136.433993">
 <ele>866</ele>
 <time>2020-03-24T14:20:20Z</time>
</trkpt>
<trkpt lat="35.019600" lon="136.434047">
 <ele>860</ele>
 <time>2020-03-24T14:20:20Z</time>
</trkpt>
<trkpt lat="35.019437" lon="136.434047">
 <ele>846</ele>
 <time>2020-03-24T14:20:20Z</time>
</trkpt>
<trkpt lat="35.019437" lon="136.434101">
 <ele>849</ele>
 <time>2020-03-24T14:20:21Z</time>
</trkpt>
<trkpt lat="35.019385" lon="136.434122">
 <ele>849</ele>
 <time>2020-03-24T14:20:21Z</time>
</trkpt>
<trkpt lat="35.019325" lon="136.434165">
 <ele>848</ele>
 <time>2020-03-24T14:20:21Z</time>
</trkpt>
<trkpt lat="35.019325" lon="136.434251">
 <ele>849</ele>
 <time>2020-03-24T14:20:21Z</time>
</trkpt>
<trkpt lat="35.019325" lon="136.434337">
 <ele>846</ele>
 <time>2020-03-24T14:20:21Z</time>
</trkpt>
<trkpt lat="35.019282" lon="136.434369">
 <ele>843</ele>
 <time>2020-03-24T14:20:21Z</time>
</trkpt>
<trkpt lat="35.019222" lon="136.434433">
 <ele>837</ele>
 <time>2020-03-24T14:20:21Z</time>
</trkpt>
<trkpt lat="35.019171" lon="136.434455">
 <ele>833</ele>
 <time>2020-03-24T14:20:22Z</time>
</trkpt>
<trkpt lat="35.019085" lon="136.434444">
 <ele>829</ele>
 <time>2020-03-24T14:20:22Z</time>
</trkpt>
<trkpt lat="35.019016" lon="136.434476">
 <ele>826</ele>
 <time>2020-03-24T14:20:22Z</time>
</trkpt>
<trkpt lat="35.019034" lon="136.434541">
 <ele>832</ele>
 <time>2020-03-24T14:20:22Z</time>
</trkpt>
<trkpt lat="35.019042" lon="136.434616">
 <ele>830</ele>
 <time>2020-03-24T14:20:22Z</time>
</trkpt>
<trkpt lat="35.019085" lon="136.434712">
 <ele>826</ele>
 <time>2020-03-24T14:20:22Z</time>
</trkpt>
<trkpt lat="35.019154" lon="136.434787">
 <ele>824</ele>
 <time>2020-03-24T14:20:23Z</time>
</trkpt>
<trkpt lat="35.019171" lon="136.434905">
 <ele>819</ele>
 <time>2020-03-24T14:20:23Z</time>
</trkpt>
<trkpt lat="35.019128" lon="136.434948">
 <ele>816</ele>
 <time>2020-03-24T14:20:23Z</time>
</trkpt>
<trkpt lat="35.019076" lon="136.435013">
 <ele>812</ele>
 <time>2020-03-24T14:20:23Z</time>
</trkpt>
<trkpt lat="35.019051" lon="136.435099">
 <ele>811</ele>
 <time>2020-03-24T14:20:23Z</time>
</trkpt>
<trkpt lat="35.019059" lon="136.435184">
 <ele>808</ele>
 <time>2020-03-24T14:20:23Z</time>
</trkpt>
<trkpt lat="35.019034" lon="136.435270">
 <ele>804</ele>
 <time>2020-03-24T14:20:23Z</time>
</trkpt>
<trkpt lat="35.018982" lon="136.435335">
 <ele>802</ele>
 <time>2020-03-24T14:20:24Z</time>
</trkpt>
<trkpt lat="35.018905" lon="136.435410">
 <ele>797</ele>
 <time>2020-03-24T14:20:24Z</time>
</trkpt>
<trkpt lat="35.018845" lon="136.435453">
 <ele>793</ele>
 <time>2020-03-24T14:20:24Z</time>
</trkpt>
<trkpt lat="35.018793" lon="136.435410">
 <ele>788</ele>
 <time>2020-03-24T14:20:24Z</time>
</trkpt>
<trkpt lat="35.018785" lon="136.435335">
 <ele>789</ele>
 <time>2020-03-24T14:20:24Z</time>
</trkpt>
<trkpt lat="35.018793" lon="136.435238">
 <ele>789</ele>
 <time>2020-03-24T14:20:24Z</time>
</trkpt>
<trkpt lat="35.018776" lon="136.435163">
 <ele>790</ele>
 <time>2020-03-24T14:20:25Z</time>
</trkpt>
<trkpt lat="35.018776" lon="136.435109">
 <ele>790</ele>
 <time>2020-03-24T14:20:25Z</time>
</trkpt>
<trkpt lat="35.018767" lon="136.435002">
 <ele>797</ele>
 <time>2020-03-24T14:20:25Z</time>
</trkpt>
<trkpt lat="35.018673" lon="136.434991">
 <ele>790</ele>
 <time>2020-03-24T14:20:25Z</time>
</trkpt>
<trkpt lat="35.018613" lon="136.435013">
 <ele>784</ele>
 <time>2020-03-24T14:20:25Z</time>
</trkpt>
<trkpt lat="35.018553" lon="136.435066">
 <ele>781</ele>
 <time>2020-03-24T14:20:25Z</time>
</trkpt>
<trkpt lat="35.018501" lon="136.435120">
 <ele>774</ele>
 <time>2020-03-24T14:20:26Z</time>
</trkpt>
<trkpt lat="35.018424" lon="136.435120">
 <ele>768</ele>
 <time>2020-03-24T14:20:26Z</time>
</trkpt>
<trkpt lat="35.018355" lon="136.435141">
 <ele>763</ele>
 <time>2020-03-24T14:20:26Z</time>
</trkpt>
<trkpt lat="35.018244" lon="136.435184">
 <ele>754</ele>
 <time>2020-03-24T14:20:26Z</time>
</trkpt>
<trkpt lat="35.018141" lon="136.435206">
 <ele>752</ele>
 <time>2020-03-24T14:20:26Z</time>
</trkpt>
<trkpt lat="35.018055" lon="136.435206">
 <ele>750</ele>
 <time>2020-03-24T14:20:26Z</time>
</trkpt>
<trkpt lat="35.017961" lon="136.435206">
 <ele>743</ele>
 <time>2020-03-24T14:20:26Z</time>
</trkpt>
<trkpt lat="35.017875" lon="136.435184">
 <ele>739</ele>
 <time>2020-03-24T14:20:27Z</time>
</trkpt>
<trkpt lat="35.017815" lon="136.435184">
 <ele>736</ele>
 <time>2020-03-24T14:20:27Z</time>
</trkpt>
<trkpt lat="35.017755" lon="136.435227">
 <ele>733</ele>
 <time>2020-03-24T14:20:27Z</time>
</trkpt>
<trkpt lat="35.017677" lon="136.435238">
 <ele>729</ele>
 <time>2020-03-24T14:20:27Z</time>
</trkpt>
<trkpt lat="35.017617" lon="136.435184">
 <ele>725</ele>
 <time>2020-03-24T14:20:27Z</time>
</trkpt>
<trkpt lat="35.017514" lon="136.435206">
 <ele>720</ele>
 <time>2020-03-24T14:20:27Z</time>
</trkpt>
<trkpt lat="35.017429" lon="136.435206">
 <ele>716</ele>
 <time>2020-03-24T14:20:28Z</time>
</trkpt>
<trkpt lat="35.017351" lon="136.435206">
 <ele>713</ele>
 <time>2020-03-24T14:20:28Z</time>
</trkpt>
<trkpt lat="35.017265" lon="136.435184">
 <ele>707</ele>
 <time>2020-03-24T14:20:28Z</time>
</trkpt>
<trkpt lat="35.017197" lon="136.435141">
 <ele>702</ele>
 <time>2020-03-24T14:20:28Z</time>
</trkpt>
<trkpt lat="35.017145" lon="136.435077">
 <ele>698</ele>
 <time>2020-03-24T14:20:28Z</time>
</trkpt>
<trkpt lat="35.017077" lon="136.435056">
 <ele>696</ele>
 <time>2020-03-24T14:20:28Z</time>
</trkpt>
<trkpt lat="35.017008" lon="136.435066">
 <ele>693</ele>
 <time>2020-03-24T14:20:28Z</time>
</trkpt>
<trkpt lat="35.016965" lon="136.435034">
 <ele>691</ele>
 <time>2020-03-24T14:20:29Z</time>
</trkpt>
<trkpt lat="35.016871" lon="136.435077">
 <ele>689</ele>
 <time>2020-03-24T14:20:29Z</time>
</trkpt>
<trkpt lat="35.016811" lon="136.435163">
 <ele>690</ele>
 <time>2020-03-24T14:20:29Z</time>
</trkpt>
<trkpt lat="35.016742" lon="136.435227">
 <ele>686</ele>
 <time>2020-03-24T14:20:29Z</time>
</trkpt>
<trkpt lat="35.016639" lon="136.435324">
 <ele>679</ele>
 <time>2020-03-24T14:20:29Z</time>
</trkpt>
<trkpt lat="35.016527" lon="136.435388">
 <ele>678</ele>
 <time>2020-03-24T14:20:29Z</time>
</trkpt>
<trkpt lat="35.016441" lon="136.435431">
 <ele>675</ele>
 <time>2020-03-24T14:20:30Z</time>
</trkpt>
<trkpt lat="35.016287" lon="136.435442">
 <ele>673</ele>
 <time>2020-03-24T14:20:30Z</time>
</trkpt>
<trkpt lat="35.016175" lon="136.435420">
 <ele>667</ele>
 <time>2020-03-24T14:20:30Z</time>
</trkpt>
<trkpt lat="35.016124" lon="136.435463">
 <ele>668</ele>
 <time>2020-03-24T14:20:30Z</time>
</trkpt>
<trkpt lat="35.016132" lon="136.435560">
 <ele>667</ele>
 <time>2020-03-24T14:20:30Z</time>
</trkpt>
<trkpt lat="35.016098" lon="136.435635">
 <ele>664</ele>
 <time>2020-03-24T14:20:30Z</time>
</trkpt>
<trkpt lat="35.016072" lon="136.435753">
 <ele>656</ele>
 <time>2020-03-24T14:20:30Z</time>
</trkpt>
<trkpt lat="35.016047" lon="136.435839">
 <ele>652</ele>
 <time>2020-03-24T14:20:31Z</time>
</trkpt>
<trkpt lat="35.015978" lon="136.435796">
 <ele>645</ele>
 <time>2020-03-24T14:20:31Z</time>
</trkpt>
<trkpt lat="35.015875" lon="136.435807">
 <ele>639</ele>
 <time>2020-03-24T14:20:31Z</time>
</trkpt>
<trkpt lat="35.015798" lon="136.435850">
 <ele>629</ele>
 <time>2020-03-24T14:20:31Z</time>
</trkpt>
<trkpt lat="35.015738" lon="136.435850">
 <ele>629</ele>
 <time>2020-03-24T14:20:31Z</time>
</trkpt>
<trkpt lat="35.015652" lon="136.435828">
 <ele>621</ele>
 <time>2020-03-24T14:20:31Z</time>
</trkpt>
<trkpt lat="35.015557" lon="136.435828">
 <ele>618</ele>
 <time>2020-03-24T14:20:32Z</time>
</trkpt>
<trkpt lat="35.015480" lon="136.435828">
 <ele>614</ele>
 <time>2020-03-24T14:20:32Z</time>
</trkpt>
<trkpt lat="35.015420" lon="136.435785">
 <ele>612</ele>
 <time>2020-03-24T14:20:32Z</time>
</trkpt>
<trkpt lat="35.015377" lon="136.435721">
 <ele>610</ele>
 <time>2020-03-24T14:20:32Z</time>
</trkpt>
<trkpt lat="35.015326" lon="136.435678">
 <ele>606</ele>
 <time>2020-03-24T14:20:32Z</time>
</trkpt>
<trkpt lat="35.015240" lon="136.435635">
 <ele>604</ele>
 <time>2020-03-24T14:20:32Z</time>
</trkpt>
<trkpt lat="35.015240" lon="136.435592">
 <ele>602</ele>
 <time>2020-03-24T14:20:33Z</time>
</trkpt>
<trkpt lat="35.015257" lon="136.435528">
 <ele>602</ele>
 <time>2020-03-24T14:20:33Z</time>
</trkpt>
<trkpt lat="35.015283" lon="136.435474">
 <ele>601</ele>
 <time>2020-03-24T14:20:33Z</time>
</trkpt>
<trkpt lat="35.015266" lon="136.435399">
 <ele>601</ele>
 <time>2020-03-24T14:20:33Z</time>
</trkpt>
<trkpt lat="35.015223" lon="136.435345">
 <ele>595</ele>
 <time>2020-03-24T14:20:33Z</time>
</trkpt>
<trkpt lat="35.015145" lon="136.435259">
 <ele>587</ele>
 <time>2020-03-24T14:20:33Z</time>
</trkpt>
<trkpt lat="35.015060" lon="136.435292">
 <ele>585</ele>
 <time>2020-03-24T14:20:33Z</time>
</trkpt>
<trkpt lat="35.014939" lon="136.435345">
 <ele>574</ele>
 <time>2020-03-24T14:20:34Z</time>
</trkpt>
<trkpt lat="35.014888" lon="136.435270">
 <ele>574</ele>
 <time>2020-03-24T14:20:34Z</time>
</trkpt>
<trkpt lat="35.014836" lon="136.435174">
 <ele>564</ele>
 <time>2020-03-24T14:20:34Z</time>
</trkpt>
<trkpt lat="35.014768" lon="136.435109">
 <ele>561</ele>
 <time>2020-03-24T14:20:34Z</time>
</trkpt>
<trkpt lat="35.014716" lon="136.435152">
 <ele>560</ele>
 <time>2020-03-24T14:20:34Z</time>
</trkpt>
<trkpt lat="35.014639" lon="136.435206">
 <ele>559</ele>
 <time>2020-03-24T14:20:34Z</time>
</trkpt>
<trkpt lat="35.014630" lon="136.435313">
 <ele>558</ele>
 <time>2020-03-24T14:20:35Z</time>
</trkpt>
<trkpt lat="35.014579" lon="136.435463">
 <ele>558</ele>
 <time>2020-03-24T14:20:35Z</time>
</trkpt>
<trkpt lat="35.014510" lon="136.435581">
 <ele>557</ele>
 <time>2020-03-24T14:20:35Z</time>
</trkpt>
<trkpt lat="35.014416" lon="136.435742">
 <ele>558</ele>
 <time>2020-03-24T14:20:35Z</time>
</trkpt>
<trkpt lat="35.014330" lon="136.435914">
 <ele>558</ele>
 <time>2020-03-24T14:20:35Z</time>
</trkpt>
<trkpt lat="35.014279" lon="136.436043">
 <ele>559</ele>
 <time>2020-03-24T14:20:35Z</time>
</trkpt>
<trkpt lat="35.014296" lon="136.436246">
 <ele>558</ele>
 <time>2020-03-24T14:20:35Z</time>
</trkpt>
<trkpt lat="35.014339" lon="136.436493">
 <ele>557</ele>
 <time>2020-03-24T14:20:36Z</time>
</trkpt>
<trkpt lat="35.014279" lon="136.436547">
 <ele>557</ele>
 <time>2020-03-24T14:20:36Z</time>
</trkpt>
</trkseg>
</trk>
</gpx>

